Skip Page Navigation
NASA JPL Caltech
NASA Logo - Jet Propulsion Laboratory + View the NASA Portal
+ Near-Earth Object (NEO) Program
Search JPL
JPL Home Earth Solar System Stars & Galaxies Technology
JPL Solar System Dynamics
BODIES ORBITS EPHEMERIDES TOOLS PHYSICAL DATA DISCOVERY FAQ SITE MAP
JPL Small-Body Database Browser
Search: [ help ]  
14415 (1991 RQ7)
Classification: Main-belt Asteroid          SPK-ID: 2014415
Ephemeris | Orbit Diagram | Orbital Elements | Physical Parameters | Discovery Circumstances | Close-Approach Data ]

[ show orbit diagram ]
Orbital Elements at Epoch 2457000.5 (2014-Dec-09.0) TDB
Reference: JPL 8 (heliocentric ecliptic J2000)
 Element Value Uncertainty (1-sigma)   Units 
e .2805395359613116 8.2477e-08  
a 2.989190938886872 3.1006e-08 AU
q 2.150604699991791 2.3879e-07 AU
i 9.715284169501818 7.9232e-06 deg
node 305.2484439957576 4.21e-05 deg
peri 8.646327189756283 4.4134e-05 deg
M 204.014964474165 2.0004e-05 deg
tp 2457818.417212935732
(2017-Mar-05.91721294)
0.00011416 JED
period 1887.682338656744
5.17
2.937e-05
8.041e-08
d
yr
n .1907100536079457 2.9672e-09 deg/d
Q 3.827777177781952 3.9704e-08 AU
  Orbit Determination Parameters
   # obs. used (total)      669  
   data-arc span      10033 days (27.47 yr)  
   first obs. used      1986-10-02  
   last obs. used      2014-03-22  
   planetary ephem.      DE431  
   SB-pert. ephem.      SB431-BIG16  
   condition code      0  
   fit RMS      .62216  
   data source      ORB  
   producer      Otto Matic  
   solution date      2014-Jun-09 20:55:09  

Additional Information
 Earth MOID = 1.13805 AU 
 T_jup = 3.175 
[ show covariance matrix ]

Ephemeris | Orbit Diagram | Orbital Elements | Physical Parameters | Discovery Circumstances | Close-Approach Data ]

Physical Parameter Table
Parameter Symbol Value Units Sigma Reference Notes
absolute magnitude H 13.2 mag n/a MPO256970  

14415 (1991 RQ7)          Discovered 1991-Sep-13 by Ueda, S., Kaneda, H. at Kushiro (399)
Reference: 20000418/Numbers.arcLast Updated: 2004-04-19

[ show close-approach data ]
Alternate Designations
 1991 RQ7 = 1986 TN9 
Ephemeris | Orbit Diagram | Orbital Elements | Physical Parameters | Discovery Circumstances | Close-Approach Data ]
ABOUT SSD CREDITS/AWARDS PRIVACY/COPYRIGHT GLOSSARY LINKS
FirstGov 2014-Aug-30 10:28 UT
(server date/time)  
NASA Home Page
Site Manager:   Donald K. Yeomans
Webmaster  Alan B. Chamberlin